Telluride, CO

5:03 AM MDT on June 24, 2018 (GMT -0600)
Telluride Regional

Weather History for KTEX - October, 2017

Change the Weather History Date:

Tuesday, October 3, 2017

  Actual Average Record
Temperature  
Mean Temperature 49 °F -  
Max Temperature 61 °F 55 °F 68 °F (1998)
Min Temperature 37 °F 35 °F 28 °F (2002)
Degree Days  
Heating Degree Days 16    
Moisture  
Dew Point 27 °F    
Average Humidity 45    
Maximum Humidity 100    
Minimum Humidity 22    
Precipitation  
Precipitation 0.00 in - - ()
Sea Level Pressure  
Sea Level Pressure 30.25 in    
Wind  
Wind Speed 5 mph (SE)    
Max Wind Speed 18 mph    
Max Gust Speed 33 mph    
Visibility 10 miles    
Events      
Averages and records for this station are not official NWS values.
T = Trace of Precipitation, MM = Missing Value Source: NWS Daily Summary

Daily Weather History Graph

Daily Weather History Graph

Search for Another Location

Airport or City:

Astronomy

Oct. 03, 2017 Rise Set
Actual Time 7:09 AM MDT 6:51 PM MDT
Civil Twilight 6:43 AM MDT 7:17 PM MDT
Nautical Twilight 6:12 AM MDT 7:47 PM MDT
Astronomical Twilight 5:41 AM MDT 8:18 PM MDT
Moon 6:02 PM MDT (10/3) 4:46 AM MDT (10/3)
Length of Visible Light 12h 34m
Length of Day
11h 41m
Waxing Gibbous, 95% of the Moon is Illuminated
Oct 3
Waxing Gibbous
Oct 5
Full
Oct 12
Last Quarter
Oct 19
New
Oct 27
First Quarter

Hourly Weather History & Observations

Time (MDT) Temp. Windchill Dew Point Humidity Pressure Visibility Wind Dir Wind Speed Gust Speed Precip Events Conditions
12:15 AM 37.4 °F - 37.4 °F 100% 30.12 in 7.0 mi Calm Calm - N/A   Mostly Cloudy
12:35 AM 37.2 °F - 36.5 °F 97% 30.12 in 3.0 mi Calm Calm - N/A   Mostly Cloudy
12:55 AM 37.8 °F - 36.1 °F 94% 30.12 in 10.0 mi Calm Calm - N/A   Overcast
1:15 AM 39.2 °F - 33.8 °F 81% 30.12 in 10.0 mi Calm Calm - N/A   Overcast
1:35 AM 39.7 °F - 32.5 °F 75% 30.14 in 10.0 mi Calm Calm - N/A   Overcast
1:55 AM 40.1 °F - 32.0 °F 73% 30.14 in 10.0 mi Calm Calm - N/A   Mostly Cloudy
2:15 AM 39.2 °F - 32.4 °F 76% 30.14 in 10.0 mi Calm Calm - N/A   Mostly Cloudy
2:35 AM 39.6 °F - 31.8 °F 74% 30.14 in 10.0 mi Calm Calm - N/A   Mostly Cloudy
2:55 AM 38.8 °F - 32.0 °F 76% 30.14 in 10.0 mi Calm Calm - N/A   Scattered Clouds
3:15 AM 38.3 °F - 32.0 °F 78% 30.14 in 10.0 mi Calm Calm - N/A   Scattered Clouds
3:35 AM 38.3 °F - 32.0 °F 78% 30.14 in 10.0 mi Calm Calm - N/A   Scattered Clouds
3:55 AM 37.6 °F - 32.0 °F 80% 30.15 in 10.0 mi Calm Calm - N/A   Clear
4:15 AM 37.8 °F 35.3 °F 31.1 °F 77% 30.16 in 10.0 mi East 3.5 mph - N/A   Clear
4:35 AM 38.3 °F - 30.4 °F 73% 30.16 in 10.0 mi Calm Calm - N/A   Clear
4:55 AM 38.8 °F 36.5 °F 31.5 °F 75% 30.16 in 10.0 mi ESE 3.5 mph - N/A   Clear
5:15 AM 39.6 °F - 31.3 °F 72% 30.18 in 10.0 mi Calm Calm - N/A   Clear
5:35 AM 40.6 °F 37.5 °F 31.5 °F 70% 30.18 in 10.0 mi SSE 4.6 mph - N/A   Clear
5:55 AM 39.9 °F 36.7 °F 31.5 °F 72% 30.18 in 10.0 mi SE 4.6 mph - N/A   Clear
6:15 AM 40.6 °F 38.6 °F 30.9 °F 68% 30.19 in 10.0 mi SE 3.5 mph - N/A   Clear
6:35 AM 42.4 °F 38.8 °F 30.2 °F 62% 30.20 in 10.0 mi SE 5.8 mph - N/A   Clear
6:55 AM 44.8 °F 39.4 °F 30.6 °F 57% 30.20 in 10.0 mi SSE 10.4 mph 20.7 mph N/A   Clear
7:15 AM 44.2 °F 39.2 °F 29.8 °F 57% 30.20 in 10.0 mi SSE 9.2 mph 17.3 mph N/A   Clear
7:35 AM 40.8 °F 35.0 °F 30.2 °F 66% 30.22 in 10.0 mi ESE 9.2 mph 18.4 mph N/A   Clear
7:55 AM 45.0 °F 41.2 °F 28.9 °F 53% 30.22 in 10.0 mi SSE 6.9 mph - N/A   Clear
8:15 AM 44.4 °F 38.2 °F 28.9 °F 55% 30.23 in 10.0 mi SE 12.7 mph - N/A   Clear
8:35 AM 47.5 °F - 27.5 °F 46% 30.24 in 10.0 mi SE 9.2 mph 19.6 mph N/A   Clear
8:55 AM 48.6 °F - 24.4 °F 39% 30.24 in 10.0 mi South 13.8 mph 21.9 mph N/A   Clear
9:15 AM 49.1 °F - 23.9 °F 37% 30.25 in 10.0 mi SSE 18.4 mph 33.4 mph N/A   Clear
9:35 AM 50.0 °F - 23.2 °F 35% 30.25 in 10.0 mi South 9.2 mph 25.3 mph N/A   Clear
9:55 AM 50.7 °F - 22.6 °F 33% 30.26 in 10.0 mi South 9.2 mph 23.0 mph N/A   Clear
10:15 AM 51.4 °F - 22.3 °F 32% 30.27 in 10.0 mi SSE 15.0 mph 20.7 mph N/A   Clear
10:35 AM 52.2 °F - 21.2 °F 30% 30.28 in 10.0 mi SE 16.1 mph 23.0 mph N/A   Clear
10:55 AM 53.8 °F - 21.0 °F 28% 30.28 in 10.0 mi ESE 9.2 mph - N/A   Clear
11:15 AM 53.4 °F - 21.2 °F 28% 30.28 in 10.0 mi SSE 17.3 mph 23.0 mph N/A   Clear
11:35 AM 54.7 °F - 21.4 °F 27% 30.28 in 10.0 mi ESE 11.5 mph 19.6 mph N/A   Clear
11:55 AM 55.6 °F - 20.5 °F 26% 30.28 in 10.0 mi Calm Calm - N/A   Clear
12:15 PM 56.5 °F - 21.7 °F 26% 30.28 in 10.0 mi SSE 10.4 mph 18.4 mph N/A   Clear
12:35 PM 56.7 °F - 19.9 °F 24% 30.28 in 10.0 mi East 4.6 mph 18.4 mph N/A   Clear
12:55 PM 57.9 °F - 21.9 °F 25% 30.28 in 10.0 mi SE 9.2 mph - N/A   Clear
1:15 PM 58.1 °F - 21.6 °F 24% 30.28 in 10.0 mi SSE 8.1 mph - N/A   Clear
1:35 PM 58.3 °F - 19.2 °F 22% 30.28 in 10.0 mi East 4.6 mph - N/A   Clear
1:55 PM 59.2 °F - 21.6 °F 23% 30.28 in 10.0 mi SSE 9.2 mph - N/A   Clear
2:15 PM 59.4 °F - 21.2 °F 23% 30.28 in 10.0 mi ESE 9.2 mph - N/A   Clear
2:35 PM 59.7 °F - 20.3 °F 22% 30.28 in 10.0 mi Calm Calm - N/A   Clear
2:55 PM 60.8 °F - 21.7 °F 22% 30.28 in 10.0 mi ESE 6.9 mph - N/A   Clear
3:15 PM 60.8 °F - 21.7 °F 22% 30.28 in 10.0 mi South 9.2 mph 17.3 mph N/A   Clear
3:35 PM 60.8 °F - 23.4 °F 24% 30.28 in 10.0 mi SE 10.4 mph - N/A   Clear
3:55 PM 61.3 °F - 23.7 °F 24% 30.27 in 10.0 mi ESE 9.2 mph 18.4 mph N/A   Clear
4:15 PM 61.3 °F - 25.3 °F 25% 30.28 in 10.0 mi South 5.8 mph 23.0 mph N/A   Clear
4:35 PM 61.0 °F - 25.5 °F 26% 30.28 in 10.0 mi South 6.9 mph 17.3 mph N/A   Clear
4:55 PM 61.0 °F - 26.2 °F 27% 30.29 in 10.0 mi SSE 10.4 mph - N/A   Clear
5:35 PM 59.7 °F - 27.3 °F 29% 30.31 in 10.0 mi South 11.5 mph 18.4 mph N/A   Clear
5:55 PM 59.0 °F - 27.1 °F 30% 30.31 in 10.0 mi South 10.4 mph 19.6 mph N/A   Clear
6:15 PM 58.5 °F - 27.3 °F 30% 30.32 in 10.0 mi SSE 8.1 mph - N/A   Clear
6:35 PM 57.7 °F - 26.2 °F 30% 30.32 in 10.0 mi South 6.9 mph - N/A   Clear
6:55 PM 57.2 °F - 26.2 °F 31% 30.33 in 10.0 mi South 3.5 mph - N/A   Clear
7:15 PM 55.4 °F - 27.0 °F 34% 30.33 in 10.0 mi East 5.8 mph - N/A   Clear
7:35 PM 54.7 °F - 25.0 °F 32% 30.33 in 10.0 mi East 4.6 mph - N/A   Clear
7:55 PM 54.3 °F - 26.2 °F 34% 30.32 in 10.0 mi East 10.4 mph 16.1 mph N/A   Clear
8:15 PM 55.4 °F - 25.3 °F 31% 30.33 in 10.0 mi East 13.8 mph 18.4 mph N/A   Clear
8:35 PM 55.2 °F - 25.3 °F 32% 30.33 in 10.0 mi ESE 11.5 mph - N/A   Clear
8:55 PM 54.7 °F - 25.9 °F 33% 30.33 in 10.0 mi ESE 18.4 mph 23.0 mph N/A   Clear
9:15 PM 55.0 °F - 25.5 °F 32% 30.34 in 10.0 mi SE 12.7 mph 19.6 mph N/A   Clear
9:35 PM 56.8 °F - 25.3 °F 30% 30.34 in 10.0 mi SE 4.6 mph 16.1 mph N/A   Clear
9:55 PM 55.9 °F - 25.5 °F 31% 30.34 in 10.0 mi ESE 12.7 mph 20.7 mph N/A   Clear
10:15 PM 57.0 °F - 25.2 °F 29% 30.34 in 10.0 mi SSE 6.9 mph 27.6 mph N/A   Clear
10:35 PM 56.5 °F - 25.0 °F 30% 30.34 in 10.0 mi SSE 11.5 mph 21.9 mph N/A   Clear
10:55 PM 57.6 °F - 25.5 °F 29% 30.34 in 10.0 mi ESE 11.5 mph 24.2 mph N/A   Clear
11:15 PM 57.9 °F - 27.0 °F 31% 30.34 in 10.0 mi SSE 13.8 mph 26.5 mph N/A   Clear
11:35 PM 57.9 °F - 28.2 °F 32% 30.33 in 10.0 mi SSE 16.1 mph 24.2 mph N/A   Clear
11:55 PM 56.7 °F - 28.9 °F 35% 30.33 in 10.0 mi SE 11.5 mph 18.4 mph N/A   Clear